Andalusia, AL

12:53 AM CDT on October 22, 2017 (GMT -0500)
Andalusia

Weather History for K79J - May, 2013

Change the Weather History Date:

Wednesday, May 22, 2013

  Actual Average (KCEW) Record (KCEW)
Temperature  
Mean Temperature 76 °F -  
Max Temperature 87 °F 85 °F 95 °F (2011)
Min Temperature 66 °F 62 °F 42 °F (1993)
Cooling Degree Days 12    
Growing Degree Days 26 (Base 50)    
Moisture  
Dew Point 66 °F    
Average Humidity 78    
Maximum Humidity 90    
Minimum Humidity 44    
Precipitation  
Precipitation 0.00 in - - ()
Sea Level Pressure  
Sea Level Pressure 29.96 in    
Wind  
Wind Speed 1 mph (WSW)    
Max Wind Speed 8 mph    
Max Gust Speed -    
Visibility 6 miles    
Events Fog , Rain    
Averages and records for this station are not official NWS values.
T = Trace of Precipitation, MM = Missing Value Source: NWS Daily Summary

Daily Weather History Graph

Daily Weather History Graph

Search for Another Location

Airport or City:

Trip Planner

Search our weather history database for the weather conditions in past years. The results will help you decide how hot, cold, wet, or windy it might be!

Date:

Astronomy

May. 22, 2013 Rise Set
Actual Time 5:45 AM CDT 7:39 PM CDT
Civil Twilight 5:18 AM CDT 8:06 PM CDT
Nautical Twilight 4:45 AM CDT 8:39 PM CDT
Astronomical Twilight 4:11 AM CDT 9:14 PM CDT
Moon 5:09 PM CDT 3:38 AM CDT
Length of Visible Light 14h 47m
Length of Day
13h 53m
Waxing Gibbous, 91% of the Moon is Illuminated
May 22
Waxing Gibbous
May 24
Full
May 31
Last Quarter
Jun 8
New
Jun 16
First Quarter

Hourly Weather History & Observations

Time (CDT) Temp. Heat Index Dew Point Humidity Pressure Visibility Wind Dir Wind Speed Gust Speed Precip Events Conditions
12:56 AM 70.0 °F - 64.9 °F 84% 29.95 in 10.0 mi Calm Calm - N/A   Clear
1:56 AM 70.0 °F - 64.9 °F 84% 29.94 in 8.0 mi Calm Calm - N/A   Clear
2:56 AM 68.0 °F - 64.0 °F 87% 29.93 in 5.0 mi Calm Calm - N/A   Clear
3:56 AM 66.9 °F - 63.0 °F 87% 29.92 in 6.0 mi Calm Calm - N/A   Clear
4:24 AM 66.2 °F - 62.6 °F 88% 29.94 in 8.0 mi Calm Calm - N/A   Scattered Clouds
4:32 AM 66.2 °F - 62.6 °F 88% 29.94 in 8.0 mi Calm Calm - N/A   Mostly Cloudy
4:42 AM 66.2 °F - 62.6 °F 88% 29.95 in 7.0 mi Calm Calm - N/A   Mostly Cloudy
4:56 AM 68.0 °F - 64.0 °F 87% 29.94 in 5.0 mi Calm Calm - N/A   Overcast
5:22 AM 69.8 °F - 64.4 °F 83% 29.97 in 5.0 mi Calm Calm - N/A   Overcast
5:37 AM 69.8 °F - 66.2 °F 88% 29.97 in 1.8 mi Calm Calm - N/A   Overcast
5:42 AM 69.8 °F - 66.2 °F 88% 29.97 in 1.0 mi Calm Calm - N/A   Overcast
5:56 AM 69.1 °F - 66.0 °F 90% 29.96 in 1.0 mi Calm Calm - N/A   Overcast
6:06 AM 69.8 °F - 66.2 °F 88% 29.98 in 0.5 mi Calm Calm - N/A Fog Fog
6:16 AM 69.8 °F - 66.2 °F 88% 29.97 in 1.0 mi WNW 3.5 mph - N/A   Overcast
6:19 AM 69.8 °F - 66.2 °F 88% 29.97 in 1.5 mi WNW 3.5 mph - N/A   Overcast
6:24 AM 69.8 °F - 66.2 °F 88% 29.97 in 2.0 mi Calm Calm - N/A   Mostly Cloudy
6:30 AM 69.8 °F - 66.2 °F 88% 29.97 in 1.2 mi SE 3.5 mph - N/A   Mostly Cloudy
6:32 AM 69.8 °F - 66.2 °F 88% 29.98 in 1.0 mi SE 4.6 mph - N/A   Mostly Cloudy
6:37 AM 69.8 °F - 66.2 °F 88% 29.98 in 0.2 mi Calm Calm - N/A Fog Fog
6:46 AM 69.8 °F - 66.2 °F 88% 29.98 in 0.2 mi SE 3.5 mph - N/A Fog Fog
6:56 AM 69.1 °F - 66.0 °F 90% 29.97 in 0.2 mi ESE 4.6 mph - N/A Fog Fog
7:37 AM 71.6 °F - 68.0 °F 88% 29.99 in 1.0 mi Calm Calm - N/A   Mist
7:41 AM 71.6 °F - 68.0 °F 88% 29.99 in 1.5 mi Calm Calm - N/A   Overcast
7:47 AM 71.6 °F - 68.0 °F 88% 29.99 in 3.0 mi SE 4.6 mph - N/A   Overcast
7:56 AM 71.1 °F - 68.0 °F 90% 29.97 in 4.0 mi SE 5.8 mph - N/A   Mostly Cloudy
8:17 AM 71.6 °F - 68.0 °F 88% 29.99 in 8.0 mi SE 3.5 mph - N/A   Mostly Cloudy
8:35 AM 75.2 °F - 68.0 °F 78% 30.00 in 9.0 mi Calm Calm - N/A   Overcast
8:48 AM 75.2 °F - 68.0 °F 78% 30.00 in 10.0 mi Calm Calm - N/A   Overcast
8:56 AM 77.0 °F - 68.0 °F 74% 29.98 in 10.0 mi Calm Calm - N/A   Overcast
9:25 AM 77.0 °F - 66.2 °F 69% 30.01 in 10.0 mi Variable 3.5 mph - N/A   Mostly Cloudy
9:36 AM 78.8 °F - 66.2 °F 65% 30.01 in 10.0 mi Variable 3.5 mph - N/A   Scattered Clouds
9:56 AM 78.1 °F - 66.0 °F 66% 29.99 in 10.0 mi West 6.9 mph - N/A   Scattered Clouds
10:56 AM 82.9 °F 85.0 °F 66.0 °F 56% 30.00 in 10.0 mi West 8.1 mph - N/A   Clear
11:56 AM 84.0 °F 85.8 °F 64.9 °F 53% 29.98 in 10.0 mi WNW 5.8 mph - N/A   Partly Cloudy
12:56 PM 84.9 °F 86.1 °F 64.0 °F 49% 29.96 in 10.0 mi NNW 8.1 mph - N/A   Mostly Cloudy
1:56 PM 86.0 °F 87.3 °F 64.0 °F 48% 29.92 in 10.0 mi WSW 5.8 mph - N/A   Partly Cloudy
2:56 PM 87.1 °F 87.8 °F 63.0 °F 44% 29.91 in 10.0 mi WSW 4.6 mph - N/A   Clear
3:56 PM 84.9 °F 86.6 °F 64.9 °F 51% 29.89 in 10.0 mi Calm Calm - 0.00 in Rain Light Rain
4:56 PM 84.0 °F 86.5 °F 66.9 °F 56% 29.88 in 10.0 mi Calm Calm - 0.00 in   Clear
5:56 PM 82.9 °F 85.8 °F 68.0 °F 60% 29.89 in 10.0 mi WNW 3.5 mph - N/A   Partly Cloudy
6:56 PM 82.0 °F 84.9 °F 68.0 °F 62% 29.90 in 10.0 mi WNW 3.5 mph - N/A   Scattered Clouds
7:56 PM 78.1 °F - 69.1 °F 74% 29.92 in 10.0 mi Calm Calm - N/A   Mostly Cloudy
8:56 PM 75.9 °F - 69.1 °F 79% 29.93 in 10.0 mi Calm Calm - N/A   Mostly Cloudy
9:56 PM 77.0 °F - 69.1 °F 76% 29.95 in 10.0 mi West 3.5 mph - N/A   Scattered Clouds
10:56 PM 75.9 °F - 68.0 °F 76% 29.95 in 10.0 mi WNW 4.6 mph - N/A   Mostly Cloudy
11:56 PM 75.0 °F - 68.0 °F 79% 29.94 in 10.0 mi West 3.5 mph - N/A   Clear